User: anonymous   Login
Location: 5810 Zion Rd, Cleves, OH 45002, USA
(39.1922°N, 84.7113°W)
Time: 19:38:02
(UTC-05:00)
Language:

Courier 1B Rocket - Orbit

View from above orbital plane
View from above orbital plane
View from above satellite
View from above satellite

Ground track
Ground track

The orbit data is extracted from the following two-line orbital elements,

1 00059U 60013B   21017.58995238  .00000095  00000-0  69539-5 0  9995
2 00059  28.2473 198.2310 0189289 283.4808  74.4710 13.52982382975564
Epoch (UTC): 17 January 2021 14:09:31
Eccentricity: 0.0189289
inclination: 28.2473°
perigee height: 920 km
apogee height: 1202 km
right ascension of ascending node: 198.2310°
argument of perigee: 283.4808°
revolutions per day: 13.52982382
mean anomaly at epoch: 74.4710°
orbit number at epoch: 97556

The dashed part of the orbit path shows where the satellite is in the earth's shadow,  

DLR